Time,TemperatureF,DewpointF,PressureIn,WindDirection,WindDirectionDegrees,WindSpeedMPH,WindSpeedGustMPH,Humidity,HourlyPrecipIn,Conditions,Clouds,dailyrainin,SoftwareType,DateUTC
2013-02-06 00:02:00,27.0,24.0,29.92,WSW,246,1.0,6.0,89,0.00,,,0.00,,2013-02-06 05:02:00,
2013-02-06 00:12:00,27.0,24.0,29.92,WSW,246,1.0,6.0,89,0.00,,,0.00,,2013-02-06 05:12:00,
2013-02-06 00:22:00,27.0,24.0,29.92,WSW,254,3.0,6.0,89,0.00,,,0.00,,2013-02-06 05:22:00,
2013-02-06 00:32:00,27.0,24.0,29.93,SW,234,3.0,7.0,89,0.00,,,0.00,,2013-02-06 05:32:00,
2013-02-06 00:41:00,27.0,24.0,29.93,SW,234,3.0,7.0,89,0.00,,,0.00,,2013-02-06 05:41:00,
2013-02-06 00:53:00,27.0,24.0,29.93,WSW,249,0.0,7.0,89,0.00,,,0.00,,2013-02-06 05:53:00,
2013-02-06 01:01:00,27.0,24.0,29.93,WSW,249,0.0,7.0,89,0.00,,,0.00,,2013-02-06 06:01:00,
2013-02-06 01:11:00,27.0,24.0,29.93,WSW,249,0.0,7.0,89,0.00,,,0.00,,2013-02-06 06:11:00,
2013-02-06 01:22:00,27.0,24.0,29.94,WSW,246,1.0,5.0,89,0.00,,,0.00,,2013-02-06 06:22:00,
2013-02-06 01:32:00,27.0,24.0,29.96,SW,217,2.0,5.0,89,0.00,,,0.00,,2013-02-06 06:32:00,
2013-02-06 01:42:00,27.0,24.0,29.96,SW,217,2.0,5.0,89,0.00,,,0.00,,2013-02-06 06:42:00,
2013-02-06 01:52:00,27.0,24.0,29.96,West,265,2.0,5.0,89,0.00,,,0.00,,2013-02-06 06:52:00,
2013-02-06 02:01:00,28.0,25.0,29.96,WSW,250,1.0,5.0,89,0.00,,,0.00,,2013-02-06 07:01:00,
2013-02-06 02:11:00,28.0,25.0,29.96,WSW,250,1.0,5.0,89,0.00,,,0.00,,2013-02-06 07:11:00,
2013-02-06 02:22:00,28.0,25.0,29.96,West,263,3.0,5.0,89,0.00,,,0.00,,2013-02-06 07:22:00,
2013-02-06 02:32:00,28.0,25.0,29.97,WSW,255,1.0,3.0,89,0.00,,,0.00,,2013-02-06 07:32:00,
2013-02-06 02:42:00,28.0,25.0,29.97,WSW,255,1.0,3.0,89,0.00,,,0.00,,2013-02-06 07:42:00,
2013-02-06 02:51:00,28.0,25.0,29.97,WNW,286,1.0,4.0,88,0.00,,,0.00,,2013-02-06 07:51:00,
2013-02-06 03:01:00,28.0,25.0,29.99,NW,304,3.0,6.0,88,0.00,,,0.00,,2013-02-06 08:01:00,
2013-02-06 03:11:00,28.0,25.0,29.99,NW,304,3.0,6.0,88,0.00,,,0.00,,2013-02-06 08:11:00,
2013-02-06 03:21:00,28.0,25.0,29.99,WSW,244,3.0,6.0,88,0.00,,,0.00,,2013-02-06 08:21:00,
2013-02-06 03:32:00,28.0,25.0,30.00,West,263,3.0,6.0,88,0.00,,,0.00,,2013-02-06 08:32:00,
2013-02-06 03:42:00,28.0,25.0,30.00,West,263,3.0,6.0,88,0.00,,,0.00,,2013-02-06 08:42:00,
2013-02-06 03:53:00,28.0,25.0,30.00,West,279,4.0,7.0,88,0.00,,,0.00,,2013-02-06 08:53:00,
2013-02-06 04:01:00,28.0,25.0,30.02,WNW,302,5.0,8.0,87,0.00,,,0.00,,2013-02-06 09:01:00,
2013-02-06 04:11:00,28.0,25.0,30.02,WNW,302,5.0,8.0,87,0.00,,,0.00,,2013-02-06 09:11:00,
2013-02-06 04:21:00,28.0,25.0,30.02,WSW,254,1.0,8.0,87,0.00,,,0.00,,2013-02-06 09:21:00,
2013-02-06 04:32:00,28.0,24.0,30.03,West,276,3.0,10.0,86,0.00,,,0.00,,2013-02-06 09:32:00,
2013-02-06 04:42:00,28.0,24.0,30.03,West,276,3.0,10.0,86,0.00,,,0.00,,2013-02-06 09:42:00,
2013-02-06 04:52:00,28.0,24.0,30.03,WNW,294,7.0,13.0,85,0.00,,,0.00,,2013-02-06 09:52:00,
2013-02-06 05:01:00,25.0,21.0,30.05,NNE,12,7.0,14.0,85,0.00,,,0.00,,2013-02-06 10:01:00,
2013-02-06 05:11:00,25.0,21.0,30.05,NNE,12,7.0,14.0,85,0.00,,,0.00,,2013-02-06 10:11:00,
2013-02-06 05:21:00,25.0,21.0,30.05,NNE,17,2.0,14.0,85,0.00,,,0.00,,2013-02-06 10:21:00,
2013-02-06 05:32:00,24.0,20.0,30.09,NW,326,3.0,10.0,85,0.00,,,0.00,,2013-02-06 10:32:00,
2013-02-06 05:42:00,24.0,20.0,30.09,NW,326,3.0,10.0,85,0.00,,,0.00,,2013-02-06 10:42:00,
2013-02-06 05:52:00,24.0,20.0,30.09,NE,35,2.0,10.0,86,0.00,,,0.00,,2013-02-06 10:52:00,
2013-02-06 06:01:00,24.0,20.0,30.11,NE,38,3.0,8.0,85,0.00,,,0.00,,2013-02-06 11:01:00,
2013-02-06 06:11:00,24.0,20.0,30.11,NE,38,3.0,8.0,85,0.00,,,0.00,,2013-02-06 11:11:00,
2013-02-06 06:22:00,24.0,20.0,30.11,NE,35,1.0,9.0,83,0.00,,,0.00,,2013-02-06 11:22:00,
2013-02-06 06:32:00,23.0,18.0,30.14,NNE,26,3.0,10.0,81,0.00,,,0.00,,2013-02-06 11:32:00,
2013-02-06 06:42:00,23.0,18.0,30.14,NNE,26,3.0,10.0,81,0.00,,,0.00,,2013-02-06 11:42:00,
2013-02-06 06:52:00,23.0,18.0,30.14,ENE,74,2.0,10.0,80,0.00,,,0.00,,2013-02-06 11:52:00,
2013-02-06 07:02:00,23.0,17.0,30.15,WNW,301,5.0,9.0,77,0.00,,,0.00,,2013-02-06 12:02:00,
2013-02-06 07:12:00,23.0,17.0,30.15,WNW,301,5.0,9.0,77,0.00,,,0.00,,2013-02-06 12:12:00,
2013-02-06 07:22:00,23.0,17.0,30.15,NNE,28,8.0,9.0,77,0.00,,,0.00,,2013-02-06 12:22:00,
2013-02-06 07:32:00,23.0,17.0,30.17,NE,46,3.0,8.0,78,0.00,,,0.00,,2013-02-06 12:32:00,
2013-02-06 07:42:00,23.0,17.0,30.17,NE,46,3.0,8.0,78,0.00,,,0.00,,2013-02-06 12:42:00,
2013-02-06 07:52:00,23.0,16.0,30.17,NW,313,5.0,8.0,74,0.00,,,0.00,,2013-02-06 12:52:00,
2013-02-06 08:02:00,23.0,16.0,30.21,West,281,3.0,9.0,73,0.00,,,0.00,,2013-02-06 13:02:00,
2013-02-06 08:12:00,23.0,16.0,30.21,West,281,3.0,9.0,73,0.00,,,0.00,,2013-02-06 13:12:00,
2013-02-06 08:22:00,22.0,14.0,30.21,NNE,29,4.0,9.0,72,0.00,,,0.00,,2013-02-06 13:22:00,
2013-02-06 08:32:00,22.0,15.0,30.22,NW,314,2.0,6.0,73,0.00,,,0.00,,2013-02-06 13:32:00,
2013-02-06 08:42:00,22.0,15.0,30.22,NW,314,2.0,6.0,73,0.00,,,0.00,,2013-02-06 13:42:00,
2013-02-06 08:52:00,22.0,14.0,30.22,NNW,333,3.0,6.0,72,0.00,,,0.00,,2013-02-06 13:52:00,
2013-02-06 09:02:00,23.0,15.0,30.23,NW,313,2.0,4.0,72,0.00,,,0.00,,2013-02-06 14:02:00,
2013-02-06 09:11:00,23.0,15.0,30.23,NW,313,2.0,4.0,72,0.00,,,0.00,,2013-02-06 14:11:00,
2013-02-06 09:22:00,23.0,15.0,30.23,NW,323,5.0,7.0,72,0.00,,,0.00,,2013-02-06 14:22:00,
2013-02-06 09:32:00,23.0,14.0,30.24,WNW,302,3.0,8.0,69,0.00,,,0.00,,2013-02-06 14:32:00,
2013-02-06 09:42:00,23.0,14.0,30.24,WNW,302,3.0,8.0,69,0.00,,,0.00,,2013-02-06 14:42:00,
2013-02-06 09:52:00,23.0,14.0,30.24,East,92,1.0,8.0,69,0.00,,,0.00,,2013-02-06 14:52:00,
2013-02-06 10:02:00,24.0,15.0,30.24,NW,321,2.0,4.0,68,0.00,,,0.00,,2013-02-06 15:02:00,
2013-02-06 10:11:00,24.0,14.0,30.24,NNE,27,1.0,4.0,66,0.00,,,0.00,,2013-02-06 15:11:00,
2013-02-06 10:21:00,24.0,14.0,30.24,NNE,27,1.0,4.0,66,0.00,,,0.00,,2013-02-06 15:21:00,
2013-02-06 10:32:00,24.0,14.0,30.25,NNE,15,2.0,4.0,65,0.00,,,0.00,,2013-02-06 15:32:00,
2013-02-06 10:42:00,24.0,14.0,30.25,NNE,15,2.0,4.0,65,0.00,,,0.00,,2013-02-06 15:42:00,
2013-02-06 10:52:00,25.0,15.0,30.25,ENE,59,1.0,4.0,65,0.00,,,0.00,,2013-02-06 15:52:00,
2013-02-06 11:01:00,25.0,15.0,30.24,NE,55,1.0,6.0,65,0.00,,,0.00,,2013-02-06 16:01:00,
2013-02-06 11:11:00,25.0,15.0,30.24,NE,55,1.0,6.0,65,0.00,,,0.00,,2013-02-06 16:11:00,
2013-02-06 11:21:00,25.0,15.0,30.24,NE,34,1.0,6.0,64,0.00,,,0.00,,2013-02-06 16:21:00,
2013-02-06 11:32:00,26.0,16.0,30.25,ENE,58,2.0,4.0,65,0.00,,,0.00,,2013-02-06 16:32:00,
2013-02-06 11:42:00,26.0,16.0,30.25,ENE,58,2.0,4.0,65,0.00,,,0.00,,2013-02-06 16:42:00,
2013-02-06 11:52:00,26.0,15.0,30.25,NNW,344,2.0,6.0,63,0.00,,,0.00,,2013-02-06 16:52:00,
2013-02-06 12:02:00,26.0,14.0,30.26,NW,318,1.0,5.0,61,0.00,,,0.00,,2013-02-06 17:02:00,
2013-02-06 12:11:00,26.0,14.0,30.26,NW,318,1.0,5.0,61,0.00,,,0.00,,2013-02-06 17:11:00,
2013-02-06 12:22:00,26.0,15.0,30.26,ENE,74,1.0,5.0,63,0.00,,,0.00,,2013-02-06 17:22:00,
2013-02-06 12:32:00,27.0,16.0,30.26,NW,326,2.0,4.0,62,0.00,,,0.00,,2013-02-06 17:32:00,
2013-02-06 12:42:00,27.0,15.0,30.26,NW,320,3.0,4.0,61,0.00,,,0.00,,2013-02-06 17:42:00,
2013-02-06 12:52:00,27.0,15.0,30.26,NW,320,3.0,4.0,61,0.00,,,0.00,,2013-02-06 17:52:00,
2013-02-06 13:02:00,27.0,16.0,30.25,NE,39,2.0,6.0,62,0.00,,,0.00,,2013-02-06 18:02:00,
2013-02-06 13:11:00,28.0,17.0,30.25,NE,49,3.0,6.0,62,0.00,,,0.00,,2013-02-06 18:11:00,
2013-02-06 13:23:00,28.0,17.0,30.25,NE,49,3.0,6.0,62,0.00,,,0.00,,2013-02-06 18:23:00,
2013-02-06 13:32:00,28.0,16.0,30.26,NW,304,1.0,5.0,61,0.00,,,0.00,,2013-02-06 18:32:00,
2013-02-06 13:42:00,28.0,16.0,30.26,NW,304,1.0,5.0,61,0.00,,,0.00,,2013-02-06 18:42:00,
2013-02-06 13:52:00,28.0,16.0,30.26,NNE,26,2.0,5.0,60,0.00,,,0.00,,2013-02-06 18:52:00,
2013-02-06 14:02:00,28.0,16.0,30.26,NNW,337,2.0,4.0,61,0.00,,,0.00,,2013-02-06 19:02:00,
2013-02-06 14:11:00,28.0,16.0,30.26,NNW,337,2.0,4.0,61,0.00,,,0.00,,2013-02-06 19:11:00,
2013-02-06 14:21:00,28.0,16.0,30.26,NE,45,3.0,4.0,60,0.00,,,0.00,,2013-02-06 19:21:00,
2013-02-06 14:32:00,28.0,16.0,30.27,NNW,342,2.0,4.0,60,0.00,,,0.00,,2013-02-06 19:32:00,
2013-02-06 14:42:00,28.0,16.0,30.27,NNW,342,2.0,4.0,60,0.00,,,0.00,,2013-02-06 19:42:00,
2013-02-06 14:52:00,28.0,16.0,30.27,NW,304,2.0,5.0,59,0.00,,,0.00,,2013-02-06 19:52:00,
2013-02-06 15:01:00,29.0,16.0,30.27,NE,44,2.0,3.0,57,0.00,,,0.00,,2013-02-06 20:01:00,
2013-02-06 15:11:00,29.0,15.0,30.27,ENE,63,0.0,3.0,55,0.00,,,0.00,,2013-02-06 20:11:00,
2013-02-06 15:21:00,29.0,15.0,30.27,ENE,63,0.0,3.0,55,0.00,,,0.00,,2013-02-06 20:21:00,
2013-02-06 15:32:00,30.0,16.0,30.27,NE,53,2.0,4.0,55,0.00,,,0.00,,2013-02-06 20:32:00,
2013-02-06 15:42:00,30.0,16.0,30.27,NE,53,2.0,4.0,55,0.00,,,0.00,,2013-02-06 20:42:00,
2013-02-06 15:52:00,29.0,15.0,30.27,ENE,61,2.0,4.0,56,0.00,,,0.00,,2013-02-06 20:52:00,
2013-02-06 16:02:00,30.0,16.0,30.27,ENE,59,2.0,4.0,55,0.00,,,0.00,,2013-02-06 21:02:00,
2013-02-06 16:11:00,30.0,16.0,30.27,ENE,59,2.0,4.0,55,0.00,,,0.00,,2013-02-06 21:11:00,
2013-02-06 16:21:00,29.0,15.0,30.27,NNE,29,1.0,4.0,55,0.00,,,0.00,,2013-02-06 21:21:00,
2013-02-06 16:32:00,30.0,16.0,30.28,ENE,61,3.0,4.0,55,0.00,,,0.00,,2013-02-06 21:32:00,
2013-02-06 16:42:00,30.0,16.0,30.28,ENE,61,3.0,4.0,55,0.00,,,0.00,,2013-02-06 21:42:00,
2013-02-06 16:51:00,29.0,14.0,30.28,ENE,59,2.0,4.0,54,0.00,,,0.00,,2013-02-06 21:51:00,
2013-02-06 17:01:00,29.0,16.0,30.28,East,83,2.0,5.0,57,0.00,,,0.00,,2013-02-06 22:01:00,
2013-02-06 17:11:00,29.0,16.0,30.28,East,83,2.0,5.0,57,0.00,,,0.00,,2013-02-06 22:11:00,
2013-02-06 17:22:00,28.0,15.0,30.28,East,85,1.0,5.0,57,0.00,,,0.00,,2013-02-06 22:22:00,
2013-02-06 17:32:00,28.0,16.0,30.28,NNW,339,2.0,4.0,59,0.00,,,0.00,,2013-02-06 22:32:00,
2013-02-06 17:42:00,28.0,16.0,30.28,NNW,339,2.0,4.0,59,0.00,,,0.00,,2013-02-06 22:42:00,
2013-02-06 17:52:00,28.0,16.0,30.28,NE,50,2.0,4.0,60,0.00,,,0.00,,2013-02-06 22:52:00,
2013-02-06 18:01:00,26.0,14.0,30.27,East,80,1.0,3.0,61,0.00,,,0.00,,2013-02-06 23:01:00,
2013-02-06 18:11:00,26.0,14.0,30.27,East,80,1.0,3.0,61,0.00,,,0.00,,2013-02-06 23:11:00,
2013-02-06 18:21:00,26.0,15.0,30.27,East,80,0.0,3.0,63,0.00,,,0.00,,2013-02-06 23:21:00,
2013-02-06 18:32:00,25.0,16.0,30.27,ENE,78,0.0,0.0,67,0.00,,,0.00,,2013-02-06 23:32:00,
2013-02-06 18:42:00,25.0,16.0,30.27,ENE,78,0.0,0.0,67,0.00,,,0.00,,2013-02-06 23:42:00,
2013-02-06 18:52:00,24.0,15.0,30.27,ENE,78,0.0,0.0,68,0.00,,,0.00,,2013-02-06 23:52:00,
2013-02-06 19:02:00,24.0,15.0,30.30,NNE,17,0.0,1.0,69,0.00,,,0.00,,2013-02-07 00:02:00,
2013-02-06 19:11:00,24.0,15.0,30.30,NNE,17,0.0,1.0,69,0.00,,,0.00,,2013-02-07 00:11:00,
2013-02-06 19:21:00,24.0,15.0,30.30,NNW,339,1.0,2.0,68,0.00,,,0.00,,2013-02-07 00:21:00,
2013-02-06 19:32:00,23.0,15.0,30.30,NNW,340,0.0,0.0,70,0.00,,,0.00,,2013-02-07 00:32:00,
2013-02-06 19:42:00,23.0,15.0,30.30,NNW,340,0.0,0.0,70,0.00,,,0.00,,2013-02-07 00:42:00,
2013-02-06 19:52:00,23.0,15.0,30.30,NNW,340,0.0,0.0,71,0.00,,,0.00,,2013-02-07 00:52:00,
2013-02-06 20:01:00,23.0,15.0,30.32,NE,49,0.0,2.0,72,0.00,,,0.00,,2013-02-07 01:01:00,
2013-02-06 20:11:00,23.0,15.0,30.32,NE,49,0.0,2.0,72,0.00,,,0.00,,2013-02-07 01:11:00,
2013-02-06 20:21:00,22.0,15.0,30.32,NE,49,0.0,2.0,74,0.00,,,0.00,,2013-02-07 01:21:00,
2013-02-06 20:32:00,22.0,16.0,30.32,NE,49,0.0,0.0,76,0.00,,,0.00,,2013-02-07 01:32:00,
2013-02-06 20:42:00,22.0,16.0,30.32,NE,49,0.0,0.0,76,0.00,,,0.00,,2013-02-07 01:42:00,
2013-02-06 20:52:00,21.0,15.0,30.32,NE,48,0.0,0.0,78,0.00,,,0.00,,2013-02-07 01:52:00,
2013-02-06 21:02:00,21.0,16.0,30.31,NE,48,0.0,0.0,79,0.00,,,0.00,,2013-02-07 02:02:00,
2013-02-06 21:11:00,21.0,16.0,30.31,NE,48,0.0,0.0,79,0.00,,,0.00,,2013-02-07 02:11:00,
2013-02-06 21:21:00,21.0,16.0,30.31,NE,49,0.0,0.0,79,0.00,,,0.00,,2013-02-07 02:21:00,
2013-02-06 21:32:00,20.0,15.0,30.32,NE,48,0.0,0.0,82,0.00,,,0.00,,2013-02-07 02:32:00,
2013-02-06 21:42:00,20.0,15.0,30.32,NE,48,0.0,0.0,82,0.00,,,0.00,,2013-02-07 02:42:00,
2013-02-06 21:51:00,20.0,15.0,30.32,NE,48,0.0,0.0,82,0.00,,,0.00,,2013-02-07 02:51:00,
2013-02-06 22:02:00,21.0,16.0,30.30,NE,48,0.0,0.0,82,0.00,,,0.00,,2013-02-07 03:02:00,
2013-02-06 22:11:00,21.0,16.0,30.30,NE,48,0.0,0.0,82,0.00,,,0.00,,2013-02-07 03:11:00,
2013-02-06 22:21:00,22.0,17.0,30.30,NE,48,0.0,0.0,80,0.00,,,0.00,,2013-02-07 03:21:00,
2013-02-06 22:31:00,23.0,17.0,30.29,SE,144,0.0,1.0,76,0.00,,,0.00,,2013-02-07 03:31:00,
2013-02-06 22:42:00,23.0,17.0,30.29,SE,144,0.0,1.0,76,0.00,,,0.00,,2013-02-07 03:42:00,
2013-02-06 22:52:00,23.0,16.0,30.29,SE,142,0.0,1.0,75,0.00,,,0.00,,2013-02-07 03:52:00,
2013-02-06 23:01:00,23.0,17.0,30.28,SE,145,0.0,1.0,76,0.00,,,0.00,,2013-02-07 04:01:00,
2013-02-06 23:11:00,23.0,17.0,30.28,SE,145,0.0,1.0,76,0.00,,,0.00,,2013-02-07 04:11:00,
2013-02-06 23:22:00,23.0,16.0,30.28,SE,145,0.0,1.0,75,0.00,,,0.00,,2013-02-07 04:22:00,
2013-02-06 23:32:00,23.0,16.0,30.26,SE,145,0.0,1.0,74,0.00,,,0.00,,2013-02-07 04:32:00,
2013-02-06 23:42:00,23.0,16.0,30.26,SE,145,0.0,1.0,74,0.00,,,0.00,,2013-02-07 04:42:00,
2013-02-06 23:53:00,22.0,15.0,30.26,SE,145,0.0,1.0,75,0.00,,,0.00,,2013-02-07 04:53:00,